JM1YTT-13 Weather Reports


time (UTC)temp
C
wind
direction
speed
KPH
gust
KPH
rain 1hr
cm
rain 24hr
cm
rain mn
cm
humidity
%
barometer
mb
20260509211310 9 336 0.0 0.0 0.00 0.00 0.00 90 1019.0
20260509204310 8 336 0.0 0.0 0.00 0.00 0.00 90 1018.7
20260509201310 8 336 0.0 0.0 0.00 0.00 0.00 89 1018.4
20260509194310 7 336 0.0 0.0 0.00 0.00 0.00 89 1017.9
20260509191310 8 336 0.0 0.0 0.00 0.00 0.00 88 1017.4
20260509184310 8 336 0.0 0.0 0.00 0.00 0.00 87 1017.1
20260509181310 8 336 0.0 0.0 0.00 0.00 0.00 86 1016.8
20260509174310 8 336 0.0 0.0 0.00 0.00 0.00 87 1016.6
20260509171310 8 336 0.0 0.0 0.00 0.00 0.00 84 1016.5
20260509164310 9 336 0.0 0.0 0.00 0.00 0.00 82 1016.3
20260509161310 9 336 0.0 0.0 0.00 0.00 0.00 81 1016.0
20260509154310 9 336 0.0 0.0 0.00 0.00 0.00 81 1016.0
20260509151310 10 336 0.0 0.0 0.00 0.00 0.00 77 1016.0
20260509144310 10 336 0.0 0.0 0.00 0.00 0.00 75 1015.8
20260509141310 11 336 0.0 0.0 0.00 0.00 0.00 70 1015.5
20260509134310 11 336 0.0 0.0 0.00 0.00 0.00 66 1015.2
20260509131310 12 336 0.0 0.0 0.00 0.00 0.00 64 1015.0
20260509124310 12 336 0.0 0.0 0.00 0.00 0.00 56 1014.6
20260509121310 12 336 0.0 0.0 0.00 0.00 0.00 59 1014.6
20260509114310 13 336 0.0 0.0 0.00 0.00 0.00 47 1014.3
20260509111310 14 336 0.0 0.0 0.00 0.00 0.00 46 1014.0
20260509104310 16 336 0.0 0.0 0.00 0.00 0.00 42 1013.5
20260509101310 17 336 0.0 0.0 0.00 0.00 0.00 36 1013.0
20260509094310 18 336 0.0 0.0 0.00 0.00 0.00 31 1012.6
20260509091310 22 341 0.0 3.2 0.00 0.00 0.00 27 1012.0
20260509084310 23 341 0.0 3.2 0.00 0.00 0.00 26 1011.5
20260509081310 23 341 0.0 3.2 0.00 0.00 0.00 26 1011.0
20260509074310 24 337 0.0 3.2 0.00 0.00 0.00 26 1010.5
20260509071310 24 352 0.0 6.4 0.00 0.00 0.00 26 1010.1
20260509064310 23 337 0.0 3.2 0.00 0.00 0.00 28 1009.6
20260509061310 23 346 0.0 6.4 0.00 0.00 0.00 28 1009.5
20260509054310 23 4 0.0 12.9 0.00 0.00 0.00 30 1009.1
20260509051310 22 345 1.6 6.4 0.00 0.00 0.00 30 1009.4
20260509044310 22 336 1.6 3.2 0.00 0.00 0.00 33 1009.6
20260509041310 22 345 6.4 9.7 0.00 0.00 0.00 32 1009.9
20260509034310 23 351 1.6 19.3 0.00 0.00 0.00 35 1009.8
20260509031310 22 9 3.2 27.4 0.00 0.00 0.00 35 1009.7
20260509024310 21 336 1.6 3.2 0.00 0.00 0.00 38 1009.5
20260509021310 21 337 6.4 9.7 0.00 0.00 0.00 37 1009.2
20260509014310 21 335 4.8 30.6 0.00 0.00 0.00 41 1009.3
20260509011310 20 341 0.0 3.2 0.00 0.00 0.00 39 1009.2
20260509004310 21 2 1.6 6.4 0.00 0.00 0.00 37 1008.7
20260509001310 21 347 0.0 6.4 0.00 0.00 0.00 37 1008.0
20260508234310 21 338 1.6 6.4 0.00 0.00 0.00 38 1008.0
20260508231310 20 5 0.0 0.0 0.00 0.00 0.00 53 1007.5
20260508224310 19 158 0.0 3.2 0.00 0.00 0.00 62 1007.1
20260508221310 17 163 0.0 0.0 0.00 0.00 0.00 82 1006.8
20260508214310 15 178 0.0 0.0 0.00 0.00 0.00 85 1006.2